Location: Bédeille
(43.0872°N, 1.1041°E)
Time: 20:42:14
(UTC+00:00)

Cosmos 1954 Rocket - Pass Details

Date: 03 February 2023
Orbit: 752 x 780 km, 74.0° (Epoch: 22 March)

Event Time Altitude Azimuth Distance (km) Brightness Sun altitude
Rises 18:09:14 0° 199° (SSW) 3,231 7.7 -11.1°
Reaches altitude 10° 18:11:36 10° 200° (SSW) 2,304 6.9 -11.5°
Maximum altitude 18:16:51 87° 290° (WNW) 772 4.0 -12.5°
Drops below altitude 10° 18:22:05 10° 20° (NNE) 2,301 6.2 -13.4°
Sets 18:24:27 0° 21° (NNE) 3,227 6.9 -13.8°
